Find Starlink 30812

NORAD ID: 58168 Int'l Des: 2023-166 Owner: SPXS Country: US Constellation: starlink operational
LEOCIRCULAR

現在のビュー

3D地球を読み込み中...

About Starlink 30812

Starlink 30812 (NORAD 58168) is a starlink constellation satellite (v2 mini) launched Oct 29, 2023 by SPXS of US. It operates in LEO, CIRCULAR orbit with a mass of 730.00 kg.

次回通過

Passes for default location (London). Set your location on the main map for personalized predictions.

高度履歴

Loading altitude history...

軌道要素

1 58168U 23166U 26263.36977869 -.00000955 00000-0 -17169-4 0 9999
2 58168 53.1617 34.0778 0000578 87.3489 272.7580 15.34381617162853
Epoch: Sep 20, 2026 • Age: 15 hours

現在のステータス

高度 464.6 km
遠地点 / 近地点 N/A
速度 7.64 km/s
衛星直下点 32.53°N, 170.15°W
打ち上げ日 Oct 29, 2023
運用期間 2.8 years
タイプ internet

技術仕様

分類 Payload
質量 730.00 kg
乾燥質量 700.00 kg
長さ 0.30 m
スパン 29.00 m
形状 ? Box + pan
製造者 SPXS
バスタイプ Starlink V2M
フェーズステータス In Orbit
所有者/国 SPXS/US

Most Searched